This is the latest recevied weather packets stored in our database for station/object K4CRS-13. If no packets are shown the sender has not sent any weather packets the latest 10 day(s).
| Time | Temp. | Humidity | Pressure | Rain* | Wind** | Luminosity | Snow |
|---|---|---|---|---|---|---|---|
| 1777539548 | 13.33° C | 99% | 1047.8 hPa | 0 mm | - | 0 W/m² | - |
| 1777539244 | 13.33° C | 99% | 1047.9 hPa | 0 mm | - | 0 W/m² | - |
| 1777538941 | 13.33° C | 99% | 1047.8 hPa | 0 mm | - | 0 W/m² | - |
| 1777538636 | 13.33° C | 99% | 1047.8 hPa | 0 mm | - | 0 W/m² | - |
| 1777538331 | 13.33° C | 99% | 1047.9 hPa | 0 mm | - | 0 W/m² | - |
| 1777538027 | 13.33° C | 99% | 1047.7 hPa | 0 mm | - | 0 W/m² | - |
| 1777537723 | 13.33° C | 99% | 1047.4 hPa | 0 mm | - | 0 W/m² | - |
| 1777537420 | 13.33° C | 99% | 1047.4 hPa | 0 mm | - | 0 W/m² | - |
| 1777537116 | 13.33° C | 99% | 1047.1 hPa | 0 mm | - | 0 W/m² | - |
| 1777536813 | 13.33° C | 98% | 1047.3 hPa | 0 mm | - | 0 W/m² | - |
| 1777536510 | 13.33° C | 98% | 1047.2 hPa | 0 mm | - | 0 W/m² | - |
| 1777536206 | 13.33° C | 98% | 1046.9 hPa | 0 mm | - | 0 W/m² | - |
| 1777535903 | 13.33° C | 98% | 1047 hPa | 1.27 mm | - | 0 W/m² | - |
| 1777535599 | 13.33° C | 98% | 1047.1 hPa | 1.27 mm | - | 0 W/m² | - |
| 1777535296 | 13.33° C | 98% | 1047.5 hPa | 1.78 mm | - | 0 W/m² | - |
| 1777534993 | 13.33° C | 98% | 1047.1 hPa | 7.87 mm | - | 0 W/m² | - |
| 1777534689 | 13.33° C | 98% | 1047.1 hPa | 6.6 mm | - | 0 W/m² | - |
| 1777534387 | 13.33° C | 98% | 1047 hPa | 3.05 mm | - | 0 W/m² | - |
| 1777534085 | 13.33° C | 98% | 1047.1 hPa | 6.1 mm | - | 0 W/m² | - |
| 1777533782 | 13.33° C | 98% | 1047.6 hPa | 4.32 mm | - | 0 W/m² | - |
| 1777533477 | 13.89° C | 98% | 1047.8 hPa | 3.05 mm | - | 0 W/m² | - |
| 1777533173 | 13.89° C | 98% | 1047.9 hPa | 3.05 mm | - | 0 W/m² | - |
| 1777532871 | 13.89° C | 98% | 1048.2 hPa | 4.83 mm | - | 0 W/m² | - |
| 1777532568 | 14.44° C | 98% | 1048.4 hPa | 11.94 mm | - | 0 W/m² | - |
| 1777532264 | 15° C | 98% | 1048.2 hPa | 23.37 mm | - | 0 W/m² | - |
* Rain latest hour (hover to see other rain measurements)
** Current wind speed in m/s (hover to see current wind gust speed)